MDT,Max TemperatureF,Mean TemperatureF,Min TemperatureF,Max Dew PointF,MeanDew PointF,Min DewpointF,Max Humidity, Mean Humidity, Min Humidity, Max Sea Level PressureIn, Mean Sea Level PressureIn, Min Sea Level PressureIn, Max VisibilityMiles, Mean VisibilityMiles, Min VisibilityMiles, Max Wind SpeedMPH, Mean Wind SpeedMPH, Max Gust SpeedMPH,PrecipitationIn, CloudCover, Events, WindDirDegrees
2012-9-1,77,60,42,46,33,20,89,51,12,29.97,29.86,29.76,10,10,10,25,7,32,0.00,0,,237
2012-9-2,78,56,33,39,31,23,79,46,13,30.08,30.01,29.93,10,10,10,24,8,30,0.00,0,,216
2012-9-3,78,56,33,40,35,31,89,54,19,30.12,30.04,29.97,10,10,10,14,3,18,0.00,1,,222
2012-9-4,75,58,40,42,38,36,83,53,23,30.10,30.06,29.99,10,10,10,14,3,22,0.00,1,,165
2012-9-5,75,55,34,47,39,35,92,59,25,30.09,30.01,29.93,10,10,10,18,4,25,0.00,1,,9
2012-9-6,68,55,42,50,46,42,93,68,42,30.21,30.11,29.96,10,9,2,21,6,25,0.44,5,Rain,334
2012-9-7,75,56,36,48,43,36,100,67,33,30.33,30.28,30.22,10,10,5,8,1,10,0.00,0,,31
2012-9-8,80,60,40,47,42,37,100,62,23,30.28,30.17,30.00,10,10,8,15,4,18,0.00,0,,155
2012-9-9,80,62,44,47,42,35,92,59,25,29.99,29.85,29.75,10,10,9,15,6,23,0.00,1,,243
2012-9-10,67,52,36,41,37,31,85,58,31,29.99,29.85,29.77,10,10,10,24,9,36,0.00,3,,230
2012-9-11,65,49,32,37,29,20,100,60,19,30.25,30.13,29.99,10,10,6,17,5,23,0.00,3,,260
2012-9-12,64,44,24,33,28,24,92,58,23,30.44,30.38,30.27,10,10,10,10,3,15,0.00,0,,190
2012-9-13,76,53,29,41,34,29,92,58,23,30.50,30.40,30.28,10,10,10,10,1,12,0.00,0,,53
2012-9-14,78,55,31,47,38,32,100,61,22,30.28,30.16,30.03,10,8,4,10,1,13,0.00,0,,158
2012-9-15,78,58,38,46,40,35,92,58,23,30.12,30.07,30.03,10,8,4,10,1,12,0.00,1,,356
2012-9-16,77,58,39,43,36,31,93,57,20,30.18,30.12,30.07,10,10,8,20,5,23,0.00,0,,336
2012-9-17,75,56,36,43,38,34,100,63,25,30.19,30.14,30.09,10,10,10,8,2,13,0.00,0,,276
2012-9-18,79,56,32,42,38,35,100,62,23,30.15,30.08,29.99,10,9,2,14,4,20,0.00,0,,197
2012-9-19,80,58,35,41,37,32,92,56,20,30.18,30.11,30.04,10,10,4,14,3,18,0.00,0,,159
2012-9-20,81,59,36,43,39,35,92,57,21,30.20,30.13,30.08,10,10,10,8,2,10,0.00,0,,188
2012-9-21,85,61,37,47,41,38,93,58,22,30.19,30.09,30.00,10,10,10,9,1,13,0.00,0,,313
2012-9-22,76,59,41,48,42,39,93,60,27,30.08,30.03,29.99,10,10,7,13,2,15,0.00,0,,333
2012-9-23,79,58,36,50,43,37,100,65,30,30.12,30.05,29.99,10,8,6,12,3,15,0.00,0,,343
2012-9-24,73,54,35,49,41,34,100,71,41,30.10,30.04,29.96,10,5,0,10,2,15,0.00,0,,198
2012-9-25,71,54,36,49,42,36,100,69,38,30.02,29.98,29.95,10,5,0,6,1,,0.00,0,Fog,137
2012-9-26,74,56,37,48,41,37,93,62,31,30.12,30.07,30.03,10,8,1,9,1,12,0.00,0,,334
2012-9-27,73,54,35,42,39,35,100,66,31,30.18,30.11,30.04,10,10,8,9,2,16,0.00,0,,275
2012-9-28,76,55,33,41,37,33,100,63,25,30.09,30.00,29.89,10,9,2,10,3,14,0.00,0,,285
2012-9-29,78,58,38,45,41,36,92,59,26,30.09,30.03,29.96,10,10,6,14,5,21,0.00,1,,213
2012-9-30,75,57,39,47,39,29,93,56,19,30.29,30.19,30.09,10,10,10,12,3,16,T,0,,211